CAPE
262 105 84 177 153 94 113 0 0 0 1 77 115 174 122 45 0 89 141 340 246 276 495 198 565 407 761 615 505 360 450 584 726
4 117 69 66 165 83 79 10 0 0 0 70 74 137 114 35 0 0 8 315 262 153 375 339 745 721 543 584 514 532 474 460 514
5 3 89 95 136 0 0 25 74 14 0 0 30 11 53 112 20 0 95 310 212 180 213 439 422 812 532 536 516 501 441 429 389
8 9 6 19 163 34 0 0 2 5 0 2 0 0 2 12 1 37 119 174 206 178 122 317 351 521 539 462 480 610 686 626 509
5 4 10 5 2 62 1 0 0 0 0 0 0 0 28 1 0 0 84 186 243 280 207 249 301 258 418 454 405 320 397 620 467
0 1 5 6 5 4 75 24 0 0 0 0 0 10 0 0 57 46 116 205 236 230 167 271 306 290 407 332 346 272 307 397 434
0 0 1 1 4 1 3 46 56 2 0 0 12 0 22 0 51 98 114 193 160 193 157 190 224 263 300 255 255 191 258 495 391
0 0 0 0 0 5 1 3 10 22 5 9 6 6 4 39 40 101 90 124 164 251 396 235 179 203 198 210 216 212 360 426 203
0 0 0 0 0 0 0 0 2 2 15 30 82 31 21 10 4 28 56 59 20 71 217 436 203 164 130 193 195 188 397 189 57
0 0 0 0 0 0 0 1 1 3 1 7 23 33 17 10 18 28 5 0 0 39 103 248 271 164 131 165 141 284 238 72 18
0 0 0 0 0 0 0 1 5 5 3 1 4 12 25 14 9 2 0 0 0 0 16 108 278 277 164 177 270 346 162 35 8
0 0 0 0 0 0 0 1 3 1 4 10 0 7 2 1 9 0 0 0 0 0 0 56 246 242 163 207 322 334 155 34 7
0 0 0 0 0 0 0 1 1 4 1 4 9 1 0 0 1 0 0 0 0 0 0 69 138 119 115 107 287 380 110 12 11
0 0 0 0 0 0 0 0 2 5 0 5 0 0 1 0 0 0 0 0 0 0 1 34 16 40 59 121 187 415 49 10 9
0 0 0 0 0 0 0 0 0 2 0 3 0 0 0 0 0 0 0 0 0 0 0 2 1 0 0 80 421 192 39 7 9
0 0 0 0 0 0 0 1 0 0 0 2 0 0 0 0 0 0 0 0 0 0 0 4 6 2 9 25 56 80 27 12 8
0 0 0 0 0 0 0 1 2 2 1 3 0 1 0 0 0 0 0 0 0 0 0 4 6 6 6 6 11 10 11 10 9
0 0 0 0 0 1 1 1 1 1 1 1 3 2 0 0 0 0 0 0 0 0 0 0 15 11 4 4 0 1 0 7 14
0 0 0 0 0 0 1 2 0 2 0 3 1 2 1 0 0 0 0 0 0 0 0 1 1 17 11 7 3 0 2 12 21
0 0 0 0 1 1 1 1 0 1 1 3 5 3 3 0 1 0 0 1 0 0 0 1 0 20 29 19 1 0 7 19 21
CIN
-6 -3 -10 -3 -5 -7 -9 -0 -0 -0 -0 -35 -94 -54 -36 -57 -0 -44 -32 -26 -16 -17 -10 -51 -12 -33 -0 -6 -14 -28 -21 -1 -0
-0 -7 -7 -8 -5 -10 -13 -2 -0 -0 -0 -29 -40 -72 -47 -61 -0 -0 -40 -26 -47 -19 -11 -22 -3 -2 -13 -11 -12 -9 -17 -20 -14
-0 -0 -6 -1 -6 -0 -0 -11 -26 -11 -0 -0 -21 -25 -60 -52 -51 -0 -43 -19 -13 -16 -25 -15 -17 -2 -12 -9 -16 -17 -20 -17 -24
-0 -0 -0 -3 -1 -8 -0 -0 -0 -3 -0 -2 -0 -0 -12 -81 -12 -56 -32 -14 -7 -13 -26 -17 -19 -12 -11 -11 -16 -10 -1 -1 -7
-0 -0 -0 -0 -0 -11 -0 -0 -0 -0 -0 -0 -0 -0 -56 -3 -0 -0 -25 -11 -23 -20 -17 -19 -18 -20 -16 -13 -23 -20 -10 -1 -7
-0 -0 -0 -0 -0 -9 -5 -2 -0 -0 -0 -0 -0 -12 -0 -0 -33 -24 -13 -8 -28 -32 -16 -15 -13 -15 -15 -19 -12 -16 -5 -4 -4
-0 -0 -0 -0 -0 -0 -0 -14 -6 -3 -0 -0 -3 -0 -40 -0 -21 -16 -21 -12 -16 -25 -14 -15 -17 -14 -19 -17 -14 -24 -6 -2 -2
-0 -0 -0 -0 -0 -0 -0 -0 -17 -16 -15 -19 -14 -15 -18 -20 -15 -17 -37 -28 -16 -25 -3 -8 -20 -20 -21 -13 -13 -15 -2 -0 -8
-0 -0 -0 -0 -0 -0 -0 -0 -0 -20 -24 -12 -14 -9 -14 -18 -20 -16 -38 -55 -51 -56 -18 -3 -14 -22 -25 -14 -12 -5 -0 -1 -18
-0 -0 -0 -0 -0 -0 -0 -0 -0 -0 -9 -23 -14 -14 -11 -14 -9 -16 -19 -0 -0 -61 -40 -9 -30 -19 -24 -21 -17 -3 -0 -23 -38
-0 -0 -0 -0 -0 -0 -0 -0 -0 -0 -2 -3 -11 -13 -9 -19 -21 -23 -0 -0 -0 -0 -61 -37 -14 -6 -14 -17 -3 -0 -2 -20 -18
-0 -0 -0 -0 -0 -0 -0 -0 -0 -0 -0 -4 -0 -10 -5 -31 -36 -1 -0 -0 -0 -0 -0 -52 -12 -12 -9 -6 -0 -5 -1 -13 -0
-0 -0 -0 -0 -0 -0 -0 -0 -0 -0 -0 -0 -8 -20 -22 -0 -43 -0 -0 -0 -0 -0 -0 -25 -12 -26 -22 -12 -0 -0 -0 -14 -0
-0 -0 -0 -0 -0 -0 -0 -0 -0 -0 -0 -0 -6 -0 -23 -0 -0 -0 -0 -0 -0 -0 -12 -15 -22 -35 -22 -24 -4 -0 -58 -25 -10
-0 -0 -0 -0 -0 -0 -0 -0 -0 -0 -0 -0 -0 -0 -0 -0 -0 -0 -0 -0 -0 -0 -0 -7 -8 -0 -0 -36 -36 -0 -2 -2 -0
-0 -0 -0 -0 -0 -0 -0 -0 -0 -0 -0 -0 -0 -0 -0 -0 -0 -0 -0 -0 -0 -0 -0 -12 -15 -7 -6 -48 -27 -0 -0 -0 -0
-0 -0 -0 -0 -0 -0 -0 -0 -0 -0 -0 -0 -0 -0 -0 -0 -0 -0 -0 -0 -0 -0 -0 -15 -17 -14 -31 -48 -94 -59 -37 -0 -0
-0 -0 -0 -0 -0 -0 -0 -0 -0 -0 -0 -0 -0 -0 -0 -0 -0 -0 -0 -0 -0 -0 -0 -0 -4 -19 -19 -24 -42 -52 -0 -0 -0
-0 -0 -0 -0 -0 -0 -0 -0 -0 -0 -0 -0 -0 -0 -0 -0 -0 -0 -0 -0 -0 -0 -0 -0 -7 -4 -8 -7 -23 -0 -0 -0 -0
-0 -0 -0 -0 -0 -0 -0 -0 -0 -0 -0 -0 -0 -0 -0 -0 -0 -0 -0 -0 -0 -0 -0 -0 -0 -13 -0 -0 -0 -0 -0 -0 -0
Wind_Speed
25 25 24 24 24 23 23 23 22 21 21 21 20 20 20 20 19 19 21 13 9 9 9 9 9 8 8 9 9 10 11 11 13
27 26 26 25 25 25 24 24 23 22 22 22 21 21 21 22 22 21 23 12 10 9 7 7 6 6 6 7 7 8 9 9 11
28 28 28 27 26 26 26 25 24 24 23 23 23 22 22 22 24 24 22 13 11 10 8 6 4 5 5 5 6 5 6 8 9
30 29 30 29 28 27 26 26 25 25 24 24 24 24 24 23 24 24 23 15 12 11 7 5 2 4 4 3 3 3 4 6 7
31 31 32 31 30 30 28 27 27 26 26 25 24 24 24 24 24 24 23 20 15 12 7 4 2 4 4 1 3 1 2 1 7
32 32 32 32 32 32 31 30 28 28 27 26 25 24 24 24 23 24 23 20 18 14 10 5 4 5 7 3 1 1 4 7 6
33 32 33 33 33 32 33 31 29 29 27 26 25 24 24 24 24 20 21 23 21 20 15 10 6 4 8 5 2 4 6 3 7
34 34 34 34 34 33 33 33 31 30 30 27 24 25 24 23 22 20 20 22 23 22 20 14 11 6 7 8 4 5 6 4 7
35 35 36 35 35 36 36 35 35 34 31 29 25 24 25 23 22 20 20 22 24 24 23 20 15 10 7 8 7 6 7 8 7
37 37 36 36 37 37 37 37 37 36 34 31 30 28 25 25 25 21 20 22 24 26 26 23 20 14 8 9 9 9 10 9 8
38 38 38 38 39 39 39 39 39 39 34 32 31 30 26 24 25 25 26 27 26 27 29 27 21 15 9 10 11 13 13 12 11
39 39 39 40 41 40 40 40 39 39 37 35 30 27 27 27 26 27 27 29 30 29 28 29 19 17 14 10 12 15 16 17 14
40 39 40 42 41 40 40 41 42 41 40 39 31 28 30 31 30 31 31 30 30 31 30 27 19 18 15 11 14 17 22 23 16
40 40 41 42 41 40 42 42 42 45 43 43 35 33 32 35 35 34 34 33 32 31 30 22 21 20 22 13 17 16 11 14 14
42 42 43 42 43 42 43 44 43 43 46 47 42 37 37 35 38 37 35 34 33 31 30 23 22 24 28 34 19 23 20 18 16
43 43 43 42 43 44 44 44 46 45 41 43 41 41 39 38 38 38 37 35 33 31 30 25 21 20 15 9 5 11 19 19 16
44 44 44 44 45 45 44 44 46 43 39 41 44 44 42 40 38 37 37 36 33 34 30 27 20 16 10 3 7 11 13 13 16
44 44 44 44 44 44 44 43 44 49 45 37 38 38 40 38 34 37 35 37 35 34 32 29 23 18 16 12 11 13 13 14 13
43 43 44 44 44 44 44 43 45 46 51 46 35 45 45 41 41 35 34 34 35 34 32 31 28 21 20 16 16 15 16 16 16
43 43 44 44 44 44 45 46 46 46 49 49 51 49 50 50 44 45 38 34 33 33 33 33 32 28 23 20 18 17 17 19 19
Wind_Direction
325 324 325 324 330 330 328 325 326 325 322 320 319 320 317 312 308 307 301 350 30 28 31 29 36 50 43 55 58 59 58 63 71
327 323 322 324 328 328 324 323 324 322 320 318 316 310 306 300 292 300 291 355 8 13 23 34 42 28 30 57 66 59 63 66 68
324 322 322 320 324 325 322 321 319 320 317 314 309 307 303 301 290 288 303 336 353 355 348 351 12 21 18 55 83 64 61 69 74
322 319 319 316 318 324 322 319 318 316 316 314 308 303 299 300 295 288 294 323 339 345 351 338 356 355 354 48 99 87 84 85 84
321 320 316 316 314 312 317 317 315 314 312 312 311 305 302 299 296 293 294 310 326 335 341 325 312 310 322 333 136 139 86 89 103
320 317 316 314 313 312 310 312 312 311 309 307 308 307 304 301 297 297 297 308 317 321 327 313 295 293 298 297 240 178 143 113 111
320 318 316 314 313 312 310 311 313 310 310 309 307 306 306 300 298 302 304 301 307 308 313 313 296 283 284 281 227 171 139 110 118
319 318 317 314 312 312 311 309 310 311 308 306 308 303 302 304 301 305 305 303 301 305 304 307 302 286 277 275 231 190 168 157 129
320 316 314 313 312 307 307 307 303 302 305 304 304 303 302 301 302 301 302 300 300 298 297 296 298 295 266 263 242 236 187 167 155
320 317 314 311 310 308 305 304 302 300 298 299 300 299 298 298 297 299 301 300 299 294 292 292 292 294 271 251 238 216 189 188 181
320 318 316 313 309 305 303 301 299 298 299 298 296 295 297 296 293 292 292 292 295 292 288 288 290 289 277 246 234 211 206 203 195
321 317 315 314 311 307 302 301 300 296 296 294 295 293 291 290 289 289 289 291 290 291 290 285 289 288 288 252 230 219 215 208 201
324 320 316 314 312 308 305 301 295 294 292 290 289 289 286 284 285 285 287 288 289 287 287 286 287 289 286 265 233 222 213 199 210
325 321 318 315 311 309 304 300 297 290 289 287 284 282 284 282 281 281 283 285 286 285 286 285 286 290 292 271 232 220 172 172 204
325 321 317 314 311 307 304 299 295 293 287 285 279 280 280 280 276 278 280 281 282 283 282 280 284 287 291 292 224 211 206 194 195
326 323 320 317 312 308 303 299 294 289 295 284 280 275 277 275 275 275 276 278 279 280 278 276 280 287 296 331 67 145 145 149 160
326 324 321 318 313 309 305 299 293 288 287 286 282 274 273 272 273 273 273 274 276 276 274 274 268 272 275 212 161 157 162 154 154
328 325 322 318 315 310 305 300 292 284 283 284 275 275 272 271 273 271 271 270 272 273 270 270 262 256 255 233 210 201 197 198 178
328 326 322 319 314 309 303 299 292 285 277 277 274 272 273 272 270 272 272 270 269 269 267 264 264 251 251 237 228 213 206 204 182
329 326 322 318 313 308 302 296 290 284 276 273 271 275 272 270 267 265 268 269 269 267 265 263 259 257 243 235 233 214 202 194 178